Stations météo

réclame
Mon MeteoGroup
Valencia/Manises, Espagne (8284): Température de l'air & dewpoint: 16.10.2017 15:00:00 - 22.10.2017 15:00:00 (CEST)Valencia/Manises, Espagne (8284): Vitesse du vent: 16.10.2017 15:00:00 - 22.10.2017 15:00:00 (CEST)Valencia/Manises, Espagne (8284): Direction du vent: 16.10.2017 15:00:00 - 22.10.2017 15:00:00 (CEST)Valencia/Manises, Espagne (8284): reduced air pressure: 16.10.2017 15:00:00 - 22.10.2017 15:00:00 (CEST)Valencia/Manises, Espagne (8284): visibility: 16.10.2017 15:00:00 - 22.10.2017 15:00:00 (CEST)
Date & Time tt [°C] td [°C] ff [km/h] ff [knt] dd ppp [hPa] vv [km]
22.10.2017 15:00:00 22,5 11,6 16 9 ESE 1023,7 -
22.10.2017 14:00:00 22,1 11,5 15 8 SE 1024,6 35
22.10.2017 13:00:00 22,2 12,2 8 4 SE 1025,3 -
22.10.2017 12:00:00 21,0 9,4 0 0 N 1025,4 -
22.10.2017 11:00:00 18,4 8,9 8 4 WNW 1025,3 40
22.10.2017 10:00:00 17,3 8,5 16 9 NW 1025,0 -
22.10.2017 09:00:00 16,6 9,5 15 8 NW 1024,4 -
22.10.2017 08:00:00 16,0 11,0 11 6 WNW 1023,8 40
22.10.2017 07:00:00 16,6 13,5 4 2 W 1023,4 -
22.10.2017 06:00:00 17,1 13,6 0 0 N 1023,2 -
22.10.2017 05:00:00 17,1 14,2 8 4 WNW 1023,0 40
22.10.2017 04:00:00 16,7 14,3 4 2 WSW 1022,9 -
22.10.2017 03:00:00 17,6 14,9 5 3 SSE 1022,6 -
22.10.2017 02:00:00 17,8 15,1 5 3 WSW 1022,6 45
22.10.2017 01:00:00 17,8 15,4 2 1 WNW 1022,3 -
22.10.2017 00:00:00 19,2 15,3 5 3 NW 1021,6 -
21.10.2017 23:00:00 21,1 15,9 9 5 NNE 1021,1 45
21.10.2017 22:00:00 21,3 16,3 11 6 NNE 1020,4 -
21.10.2017 21:00:00 21,7 16,6 8 4 NE 1019,9 -
21.10.2017 20:00:00 23,5 14,8 8 4 NNE 1019,3 50
21.10.2017 19:00:00 26,0 11,4 18 10 SW 1018,8 -
21.10.2017 18:00:00 28,1 11,6 22 12 WSW 1018,5 -
21.10.2017 17:00:00 25,6 15,9 21 11 SE 1018,8 50
21.10.2017 16:00:00 27,2 15,2 22 12 ESE 1018,6 -
21.10.2017 15:00:00 29,1 11,6 8 4 SSE 1019,2 -
21.10.2017 14:00:00 28,3 11,7 8 4 S 1020,1 40
21.10.2017 13:00:00 26,6 11,8 8 4 SSW 1021,1 -
21.10.2017 12:00:00 24,1 11,9 9 5 W 1021,6 -
21.10.2017 11:00:00 21,2 12,3 5 3 WSW 1021,9 40
21.10.2017 10:00:00 17,4 12,4 9 5 W 1022,0 -
21.10.2017 09:00:00 14,1 11,6 8 4 W 1021,7 -
21.10.2017 08:00:00 12,1 10,8 8 4 WNW 1021,2 40
21.10.2017 07:00:00 12,4 11,0 5 3 W 1020,9 -
21.10.2017 06:00:00 12,9 11,3 8 4 W 1020,6 -
21.10.2017 05:00:00 13,1 11,8 8 4 WNW 1020,7 12
21.10.2017 04:00:00 13,6 12,2 5 3 WSW 1021,2 -
21.10.2017 03:00:00 13,8 12,5 5 3 W 1021,5 -
21.10.2017 02:00:00 14,2 12,9 0 0 N 1021,7 11
21.10.2017 01:00:00 14,9 13,1 2 1 W 1021,7 -
21.10.2017 00:00:00 15,9 13,6 5 3 NW 1021,9 -
20.10.2017 23:00:00 15,8 13,8 4 2 NW 1022,0 11
20.10.2017 22:00:00 16,8 14,1 8 4 W 1021,5 -
20.10.2017 21:00:00 18,9 14,4 0 0 N 1021,0 -
20.10.2017 20:00:00 19,5 14,3 5 3 SE 1020,3 45
20.10.2017 19:00:00 20,6 14,1 13 7 SE 1019,5 -
20.10.2017 18:00:00 22,5 12,1 15 8 ESE 1018,9 -
20.10.2017 17:00:00 23,4 11,1 16 9 ESE 1018,5 20
20.10.2017 16:00:00 24,3 10,0 16 9 ESE 1018,5 -
20.10.2017 15:00:00 24,9 9,3 5 3 SE 1018,4 -
20.10.2017 14:00:00 24,7 8,5 5 3 E 1018,9 45
20.10.2017 13:00:00 23,8 8,3 8 4 SE 1019,2 -
20.10.2017 12:00:00 22,4 8,9 5 3 WSW 1018,9 -
20.10.2017 11:00:00 19,8 9,3 9 5 WSW 1018,7 40
20.10.2017 10:00:00 16,7 9,1 15 8 WSW 1018,1 -
20.10.2017 09:00:00 14,1 8,7 15 8 W 1017,0 -
20.10.2017 08:00:00 13,2 8,3 15 8 W 1016,0 40
20.10.2017 07:00:00 13,3 8,6 11 6 WSW 1015,5 -
20.10.2017 06:00:00 13,9 8,7 8 4 W 1015,1 -
20.10.2017 05:00:00 15,0 7,7 11 6 WSW 1014,6 20
20.10.2017 04:00:00 14,2 8,2 9 5 WNW 1014,4 -
20.10.2017 03:00:00 14,0 8,7 11 6 W 1014,2 -
20.10.2017 02:00:00 14,3 8,8 8 4 W 1013,9 20
20.10.2017 01:00:00 14,5 9,7 15 8 NW 1013,1 -
20.10.2017 00:00:00 13,9 10,1 8 4 WNW 1012,8 -
19.10.2017 23:00:00 15,1 10,0 11 6 W 1012,5 20
19.10.2017 22:00:00 15,1 12,0 8 4 W 1012,4 -
19.10.2017 21:00:00 15,5 12,8 13 7 WSW 1011,9 -
19.10.2017 20:00:00 16,4 13,1 9 5 NW 1011,6 40
19.10.2017 19:00:00 18,1 12,5 0 0 N 1010,6 -
19.10.2017 18:00:00 16,9 11,6 8 4 E 1009,8 -
19.10.2017 17:00:00 18,4 12,1 11 6 SSE 1009,7 10
19.10.2017 16:00:00 21,0 9,3 21 11 ESE 1008,7 -
19.10.2017 15:00:00 22,6 4,4 5 3 N 1009,0 -
19.10.2017 14:00:00 22,7 5,7 5 3 WNW 1009,6 40
19.10.2017 13:00:00 21,1 6,0 4 2 NW 1010,4 -
19.10.2017 12:00:00 19,9 6,8 9 5 NW 1010,7 -
19.10.2017 11:00:00 18,0 8,3 13 7 W 1011,0 40
19.10.2017 10:00:00 13,3 8,8 5 3 W 1011,1 -
19.10.2017 09:00:00 11,5 8,5 8 4 W 1010,7 -
19.10.2017 08:00:00 12,8 8,3 13 7 NNW 1010,4 35
19.10.2017 07:00:00 12,6 8,7 8 4 W 1010,4 -
19.10.2017 06:00:00 13,4 8,9 5 3 WNW 1010,4 -
19.10.2017 05:00:00 13,1 10,1 8 4 WNW 1010,5 20
19.10.2017 04:00:00 13,6 10,4 2 1 NW 1011,0 -
19.10.2017 03:00:00 14,9 10,5 9 5 SW 1011,4 -
19.10.2017 02:00:00 15,1 10,4 4 2 NW 1011,5 20
19.10.2017 01:00:00 15,4 11,0 15 8 WSW 1011,9 -
19.10.2017 00:00:00 16,0 11,2 8 4 W 1012,6 -
18.10.2017 23:00:00 16,8 11,1 13 7 W 1012,1 20
18.10.2017 22:00:00 17,5 11,7 16 9 W 1011,7 -
18.10.2017 21:00:00 17,5 12,0 13 7 W 1011,1 -
18.10.2017 20:00:00 18,0 13,5 18 10 WSW 1010,5 25
18.10.2017 19:00:00 17,7 15,2 11 6 W 1010,1 -
18.10.2017 18:00:00 18,0 14,9 0 0 N 1010,0 -
18.10.2017 17:00:00 17,5 15,1 5 3 W 1010,6 30
18.10.2017 16:00:00 16,4 14,6 8 4 ESE 1011,0 -
18.10.2017 15:00:00 15,9 14,1 11 6 NW 1012,1 -
18.10.2017 14:00:00 24,1 15,5 15 8 W 1011,4 15
18.10.2017 13:00:00 24,7 13,7 4 2 WSW 1012,4 -
18.10.2017 12:00:00 - - - - - - -
18.10.2017 11:00:00 21,3 17,3 4 2 W 1014,0 15
18.10.2017 10:00:00 19,9 16,3 0 0 N 1014,1 -
18.10.2017 09:00:00 18,3 15,7 0 0 N 1014,3 -
18.10.2017 08:00:00 18,3 15,7 0 0 N 1014,5 17
18.10.2017 07:00:00 18,5 15,7 2 1 WNW 1014,9 -
18.10.2017 06:00:00 18,8 15,8 4 2 WNW 1015,4 -
18.10.2017 05:00:00 18,7 15,9 8 4 NW 1016,0 15
18.10.2017 04:00:00 19,1 16,0 5 3 WNW 1017,0 -
18.10.2017 03:00:00 19,4 16,2 2 1 W 1017,5 -
18.10.2017 02:00:00 19,6 16,2 8 4 NNW 1018,0 15
18.10.2017 01:00:00 19,9 16,7 4 2 NNW 1018,7 -
18.10.2017 00:00:00 20,3 16,9 5 3 NNW 1019,2 -
17.10.2017 23:00:00 20,8 17,0 8 4 NNW 1019,6 17
17.10.2017 22:00:00 21,3 17,3 4 2 NNW 1019,6 -
17.10.2017 21:00:00 21,2 17,4 4 2 SE 1019,4 -
17.10.2017 20:00:00 21,1 16,7 5 3 SE 1019,5 15
17.10.2017 19:00:00 21,2 16,6 15 8 ESE 1019,5 -
17.10.2017 18:00:00 21,8 15,9 13 7 ESE 1019,8 -
17.10.2017 17:00:00 22,3 15,2 18 10 ESE 1019,8 15
17.10.2017 16:00:00 24,1 14,5 16 9 ESE 1020,3 -
17.10.2017 15:00:00 24,5 13,7 11 6 SE 1020,8 -
17.10.2017 14:00:00 24,7 13,6 13 7 SSE 1022,0 25
17.10.2017 13:00:00 23,8 13,1 11 6 SE 1022,9 -
17.10.2017 12:00:00 22,9 12,2 2 1 NW 1023,5 -
17.10.2017 11:00:00 21,5 12,3 8 4 WNW 1024,0 30
17.10.2017 10:00:00 19,3 13,1 4 2 W 1024,0 -
17.10.2017 09:00:00 17,7 13,4 4 2 WSW 1023,9 -
17.10.2017 08:00:00 16,7 12,6 0 0 N 1023,6 15
17.10.2017 07:00:00 17,1 13,0 4 2 NW 1023,6 -
17.10.2017 06:00:00 16,5 13,2 15 8 NW 1023,5 -
17.10.2017 05:00:00 15,4 13,4 5 3 W 1023,9 20
17.10.2017 04:00:00 14,6 12,8 8 4 WNW 1024,6 -
17.10.2017 03:00:00 15,0 13,0 4 2 NW 1025,0 -
17.10.2017 02:00:00 15,2 13,0 4 2 W 1025,2 20
17.10.2017 01:00:00 15,5 13,0 4 2 W 1025,6 -
17.10.2017 00:00:00 16,3 13,2 4 2 W 1025,8 -
16.10.2017 23:00:00 17,6 13,7 0 0 N 1025,9 20
16.10.2017 22:00:00 18,8 13,7 4 2 W 1025,8 -
16.10.2017 21:00:00 20,2 14,6 2 1 SSE 1025,5 -
16.10.2017 20:00:00 20,8 14,4 8 4 SE 1025,3 22
16.10.2017 19:00:00 22,0 14,1 13 7 SE 1025,0 -
16.10.2017 18:00:00 23,2 13,8 9 5 SE 1024,9 -
16.10.2017 17:00:00 24,1 13,2 16 9 SE 1024,7 30
16.10.2017 16:00:00 24,1 13,3 11 6 ESE 1025,2 -
16.10.2017 15:00:00 24,5 13,8 16 9 ESE 1025,5 -

tt = Température de l'air
td = dewpoint
ff = Vitesse du vent
dd = Direction du vent
ppp = reduced air pressure
vv = visibility

stations d'obs. à proximité